| time (UTC) | temp F | wind direction | speed MPH | gust MPH | rain 1hr in | rain 24hr in | rain mn in | humidity % | barometer mb |
| 20260510021911 | 53 | 310 | 0.0 | 0.0 | 0.00 | 0.09 | 0.10 | 90 | 990.1 |
| 20260510021503 | 53 | 310 | 0.0 | 2.0 | 0.00 | 0.10 | 0.10 | 90 | 990.2 |
| 20260510020842 | 54 | 310 | 0.0 | 1.0 | 0.00 | 0.09 | 0.10 | 90 | 990.1 |
| 20260510015819 | 54 | 310 | 0.0 | 0.0 | 0.00 | 0.09 | 0.10 | 89 | 989.9 |
| 20260510014834 | 55 | 310 | 0.0 | 0.0 | 0.00 | 0.09 | 0.10 | 89 | 989.8 |
| 20260510014602 | 54 | 310 | 0.0 | 0.0 | 0.00 | 0.10 | 0.10 | 89 | 989.8 |
| 20260510013808 | 55 | 310 | 0.0 | 0.0 | 0.00 | 0.09 | 0.10 | 89 | 989.6 |
| 20260510013003 | 55 | 310 | 1.0 | 3.0 | 0.00 | 0.10 | 0.10 | 89 | 989.7 |
| 20260510012747 | 55 | 310 | 0.0 | 1.0 | 0.00 | 0.09 | 0.10 | 88 | 989.6 |
| 20260510011741 | 56 | 310 | 0.0 | 2.0 | 0.00 | 0.09 | 0.10 | 88 | 989.6 |
| 20260510011604 | 55 | 310 | 0.0 | 3.0 | 0.00 | 0.10 | 0.10 | 87 | 989.6 |
| 20260510010714 | 57 | 311 | 1.0 | 2.0 | 0.00 | 0.09 | 0.10 | 86 | 989.5 |
| 20260510010004 | 57 | 360 | 1.0 | 2.0 | 0.00 | 0.10 | 0.10 | 84 | 989.5 |
| 20260510005700 | 58 | 0 | 0.0 | 1.0 | 0.00 | 0.09 | 0.10 | 83 | 989.3 |
| 20260510004709 | 58 | 0 | 0.0 | 1.0 | 0.00 | 0.09 | 0.10 | 83 | 989.3 |
| 20260510004602 | 58 | 360 | 0.0 | 2.0 | 0.00 | 0.10 | 0.10 | 83 | 989.3 |
| 20260510003641 | 59 | 0 | 0.0 | 0.0 | 0.00 | 0.09 | 0.10 | 82 | 989.3 |
| 20260510003006 | 59 | 360 | 0.0 | 2.0 | 0.00 | 0.10 | 0.10 | 81 | 989.4 |
| 20260510002616 | 60 | 0 | 0.0 | 0.0 | 0.00 | 0.09 | 0.10 | 81 | 989.2 |
| 20260510001504 | 60 | 360 | 1.0 | 2.0 | 0.00 | 0.10 | 0.10 | 80 | 989.1 |
| 20260510000514 | 61 | 19 | 0.0 | 0.0 | 0.00 | 0.09 | 0.10 | 79 | 988.8 |
| 20260510000108 | 61 | 19 | 0.0 | 2.0 | 0.00 | 0.10 | 0.10 | 79 | 989.0 |
| 20260509235506 | 62 | 19 | 0.0 | 2.0 | 0.00 | 0.09 | 0.10 | 79 | 988.9 |
| 20260509234615 | 61 | 19 | 1.0 | 3.0 | 0.00 | 0.10 | 0.10 | 78 | 989.0 |
| 20260509234436 | 62 | 19 | 0.0 | 2.0 | 0.00 | 0.09 | 0.10 | 78 | 988.9 |
| 20260509233447 | 62 | 20 | 0.0 | 2.0 | 0.00 | 0.09 | 0.10 | 77 | 988.7 |
| 20260509233002 | 62 | 20 | 1.0 | 3.0 | 0.00 | 0.10 | 0.10 | 77 | 988.8 |
| 20260509232508 | 63 | 24 | 0.0 | 5.0 | 0.00 | 0.09 | 0.10 | 79 | 988.7 |
| 20260509231603 | 62 | 31 | 2.0 | 6.0 | 0.00 | 0.10 | 0.10 | 78 | 988.7 |
| 20260509231506 | 63 | 14 | 1.0 | 4.0 | 0.00 | 0.09 | 0.10 | 77 | 988.7 |
| 20260509230514 | 63 | 17 | 2.0 | 5.0 | 0.00 | 0.09 | 0.10 | 77 | 988.7 |
| 20260509230006 | 62 | 28 | 3.0 | 6.0 | 0.00 | 0.10 | 0.10 | 76 | 988.9 |
| 20260509225510 | 63 | 355 | 2.0 | 6.0 | 0.00 | 0.09 | 0.10 | 77 | 988.8 |
| 20260509224506 | 63 | 5 | 3.0 | 6.0 | 0.00 | 0.09 | 0.10 | 76 | 988.8 |
| 20260509224502 | 63 | 5 | 3.0 | 6.0 | 0.00 | 0.10 | 0.10 | 76 | 988.9 |
| 20260509223504 | 64 | 350 | 1.0 | 6.0 | 0.00 | 0.09 | 0.10 | 75 | 988.8 |
| 20260509223103 | 63 | 360 | 2.0 | 6.0 | 0.00 | 0.10 | 0.10 | 75 | 988.8 |
| 20260509221603 | 64 | 5 | 1.0 | 4.0 | 0.00 | 0.10 | 0.10 | 75 | 988.7 |
| 20260509221328 | 64 | 5 | 0.0 | 3.0 | 0.00 | 0.09 | 0.10 | 76 | 988.7 |
| 20260509220314 | 64 | 41 | 0.0 | 4.0 | 0.00 | 0.09 | 0.10 | 75 | 988.7 |
| 20260509220200 | 64 | 41 | 0.0 | 4.0 | 0.00 | 0.10 | 0.10 | 75 | 988.9 |
| 20260509215326 | 64 | 355 | 1.0 | 4.0 | 0.00 | 0.09 | 0.10 | 77 | 988.9 |
| 20260509214602 | 64 | 360 | 1.0 | 4.0 | 0.00 | 0.10 | 0.10 | 78 | 989.0 |
| 20260509213151 | 63 | 186 | 0.0 | 0.0 | 0.00 | 0.09 | 0.10 | 80 | 989.2 |
| 20260509213003 | 62 | 186 | 0.0 | 3.0 | 0.00 | 0.10 | 0.10 | 80 | 989.3 |
| 20260509211503 | 62 | 186 | 0.0 | 2.0 | 0.00 | 0.10 | 0.10 | 80 | 989.5 |
| 20260509211015 | 63 | 176 | 0.0 | 0.0 | 0.00 | 0.09 | 0.10 | 80 | 989.6 |
| 20260509210105 | 62 | 176 | 0.0 | 3.0 | 0.00 | 0.10 | 0.10 | 81 | 989.6 |
| 20260509205941 | 63 | 176 | 0.0 | 0.0 | 0.00 | 0.09 | 0.10 | 80 | 989.5 |
| 20260509204913 | 63 | 285 | 0.0 | 1.0 | 0.00 | 0.09 | 0.10 | 79 | 989.6 |
| 20260509204602 | 63 | 285 | 0.0 | 2.0 | 0.00 | 0.10 | 0.10 | 79 | 989.5 |
| 20260509203042 | 63 | 285 | 1.0 | 5.0 | 0.00 | 0.10 | 0.10 | 78 | 989.3 |
| 20260509202718 | 64 | 283 | 1.0 | 5.0 | 0.00 | 0.09 | 0.10 | 79 | 989.1 |
| 20260509201735 | 64 | 286 | 0.0 | 0.0 | 0.00 | 0.09 | 0.10 | 81 | 989.3 |
| 20260509201603 | 63 | 286 | 0.0 | 2.0 | 0.00 | 0.10 | 0.10 | 81 | 989.4 |
| 20260509200103 | 63 | 15 | 0.0 | 1.0 | 0.00 | 0.10 | 0.10 | 81 | 989.6 |
| 20260509195609 | 63 | 30 | 0.0 | 0.0 | 0.00 | 0.09 | 0.10 | 79 | 989.7 |
| 20260509194611 | 64 | 30 | 0.0 | 2.0 | 0.00 | 0.09 | 0.10 | 81 | 989.8 |
| 20260509194509 | 64 | 30 | 0.0 | 3.0 | 0.00 | 0.10 | 0.10 | 82 | 989.9 |
| 20260509193614 | 63 | 259 | 0.0 | 3.0 | 0.00 | 0.09 | 0.10 | 87 | 989.7 |
| 20260509193058 | 61 | 50 | 0.0 | 4.0 | 0.00 | 0.10 | 0.10 | 85 | 989.9 |
| 20260509192628 | 61 | 50 | 0.0 | 3.0 | 0.00 | 0.09 | 0.10 | 84 | 989.9 |
| 20260509191639 | 61 | 5 | 1.0 | 4.0 | 0.00 | 0.09 | 0.10 | 84 | 990.1 |
| 20260509191603 | 61 | 5 | 1.0 | 4.0 | 0.00 | 0.10 | 0.10 | 85 | 990.2 |
| 20260509190640 | 61 | 5 | 1.0 | 6.0 | 0.00 | 0.09 | 0.10 | 88 | 990.3 |
| 20260509190002 | 60 | 5 | 3.0 | 8.0 | 0.00 | 0.10 | 0.10 | 87 | 990.2 |
| 20260509185629 | 60 | 344 | 2.0 | 9.0 | 0.00 | 0.09 | 0.10 | 88 | 990.3 |
| 20260509184555 | 59 | 331 | 3.0 | 9.0 | 0.00 | 0.09 | 0.10 | 90 | 990.4 |
| 20260509184502 | 59 | 9 | 3.0 | 10.0 | 0.00 | 0.10 | 0.10 | 90 | 990.5 |
| 20260509183530 | 59 | 5 | 2.0 | 7.0 | 0.00 | 0.09 | 0.10 | 92 | 990.4 |
| 20260509183140 | 58 | 304 | 3.0 | 6.0 | 0.00 | 0.10 | 0.10 | 92 | 990.5 |
| 20260509182521 | 58 | 0 | 1.0 | 7.0 | 0.00 | 0.09 | 0.10 | 92 | 990.6 |
| 20260509181506 | 57 | 288 | 0.0 | 2.0 | 0.00 | 0.09 | 0.10 | 92 | 990.6 |
| 20260509181502 | 56 | 288 | 0.0 | 2.0 | 0.00 | 0.10 | 0.10 | 92 | 990.6 |
| 20260509180443 | 56 | 288 | 0.0 | 2.0 | 0.00 | 0.09 | 0.10 | 92 | 990.7 |
| 20260509180119 | 56 | 355 | 1.0 | 2.0 | 0.00 | 0.10 | 0.10 | 92 | 990.8 |
| 20260509175413 | 56 | 5 | 0.0 | 2.0 | 0.00 | 0.09 | 0.10 | 92 | 990.9 |
| 20260509174604 | 55 | 5 | 0.0 | 3.0 | 0.00 | 0.10 | 0.10 | 91 | 990.9 |
| 20260509174436 | 55 | 5 | 1.0 | 0.0 | 0.00 | 0.09 | 0.10 | 91 | 990.9 |
| 20260509173002 | 55 | 5 | 0.0 | 2.0 | 0.00 | 0.10 | 0.10 | 92 | 991.0 |
| 20260509172317 | 55 | 5 | 0.0 | 0.0 | 0.00 | 0.09 | 0.10 | 92 | 990.9 |
| 20260509171605 | 55 | 5 | 0.0 | 1.0 | 0.00 | 0.10 | 0.10 | 92 | 991.0 |
| 20260509171316 | 55 | 5 | 0.0 | 4.0 | 0.00 | 0.09 | 0.10 | 92 | 991.0 |
| 20260509170339 | 55 | 5 | 2.0 | 4.0 | 0.00 | 0.09 | 0.10 | 91 | 990.9 |
| 20260509170003 | 54 | 5 | 2.0 | 4.0 | 0.00 | 0.10 | 0.10 | 91 | 991.1 |
| 20260509165342 | 55 | 17 | 1.0 | 4.0 | 0.00 | 0.09 | 0.10 | 91 | 991.1 |
| 20260509164344 | 55 | 9 | 0.0 | 2.0 | 0.00 | 0.09 | 0.10 | 90 | 991.2 |
| 20260509163323 | 56 | 9 | 0.0 | 1.0 | 0.00 | 0.09 | 0.10 | 90 | 991.1 |
| 20260509163003 | 55 | 9 | 0.0 | 0.0 | 0.08 | 0.10 | 0.10 | 91 | 991.1 |
| 20260509161502 | 56 | 42 | 0.0 | 0.0 | 0.09 | 0.10 | 0.10 | 91 | 990.7 |
| 20260509161222 | 56 | 42 | 0.0 | 0.0 | 0.04 | 0.09 | 0.10 | 91 | 990.7 |
| 20260509160227 | 56 | 42 | 0.0 | 0.0 | 0.08 | 0.09 | 0.10 | 90 | 990.8 |
| 20260509160007 | 55 | 42 | 0.0 | 0.0 | 0.10 | 0.10 | 0.10 | 90 | 990.9 |
| 20260509155223 | 56 | 41 | 0.0 | 0.0 | 0.10 | 0.09 | 0.09 | 89 | 991.1 |
| 20260509154503 | 56 | 41 | 0.0 | 0.0 | 0.08 | 0.08 | 0.08 | 88 | 991.6 |
| 20260509154211 | 56 | 42 | 0.0 | 0.0 | 0.19 | 0.06 | 0.06 | 88 | 991.6 |
| 20260509153219 | 56 | 41 | 0.0 | 0.0 | 0.09 | 0.03 | 0.03 | 86 | 991.9 |
| 20260509153103 | 56 | 41 | 0.0 | 3.0 | 0.03 | 0.03 | 0.03 | 86 | 992.0 |
| 20260509152238 | 56 | 42 | 0.0 | 1.0 | 0.00 | 0.01 | 0.01 | 85 | 991.7 |
| 20260509151503 | 56 | 42 | 0.0 | 2.0 | 0.01 | 0.01 | 0.01 | 86 | 991.7 |
| 20260509150037 | 57 | 59 | 0.0 | 3.0 | 0.00 | 0.00 | 0.00 | 83 | 991.9 |
| 20260509145019 | 57 | 19 | 0.0 | 0.0 | 0.00 | 0.00 | 0.00 | 82 | 991.8 |
| 20260509144603 | 57 | 61 | 1.0 | 3.0 | 0.00 | 0.00 | 0.00 | 80 | 991.9 |
| 20260509143956 | 57 | 63 | 1.0 | 4.0 | 0.00 | 0.00 | 0.00 | 79 | 991.7 |
| 20260509143003 | 57 | 70 | 2.0 | 4.0 | 0.00 | 0.00 | 0.00 | 78 | 991.7 |
| 20260509141918 | 58 | 88 | 0.0 | 4.0 | 0.00 | 0.00 | 0.00 | 77 | 991.3 |
| 20260509141611 | 57 | 56 | 1.0 | 3.0 | 0.00 | 0.00 | 0.00 | 78 | 991.3 |
| 20260509140856 | 57 | 56 | 0.0 | 2.0 | 0.00 | 0.00 | 0.00 | 77 | 991.2 |
| 20260509140107 | 57 | 84 | 0.0 | 3.0 | 0.00 | 0.00 | 0.00 | 78 | 991.2 |
| 20260509135836 | 57 | 84 | 0.0 | 3.0 | 0.00 | 0.00 | 0.00 | 78 | 991.2 |
| 20260509134846 | 57 | 117 | 0.0 | 2.0 | 0.00 | 0.00 | 0.00 | 80 | 991.2 |
| 20260509134603 | 57 | 17 | 0.0 | 3.0 | 0.00 | 0.00 | 0.00 | 80 | 991.3 |
| 20260509133904 | 57 | 17 | 0.0 | 0.0 | 0.00 | 0.00 | 0.00 | 80 | 990.8 |
| 20260509133110 | 56 | 17 | 0.0 | 3.0 | 0.00 | 0.00 | 0.00 | 80 | 990.9 |
| 20260509132903 | 57 | 17 | 0.0 | 0.0 | 0.00 | 0.00 | 0.00 | 79 | 990.9 |
| 20260509131841 | 57 | 15 | 0.0 | 0.0 | 0.00 | 0.00 | 0.00 | 80 | 990.8 |
| 20260509131503 | 56 | 17 | 0.0 | 5.0 | 0.00 | 0.00 | 0.00 | 80 | 990.9 |
| 20260509130844 | 56 | 86 | 0.0 | 2.0 | 0.00 | 0.00 | 0.00 | 81 | 991.0 |
| 20260509130007 | 56 | 5 | 0.0 | 3.0 | 0.00 | 0.00 | 0.00 | 80 | 990.8 |
| 20260509125813 | 56 | 5 | 0.0 | 0.0 | 0.00 | 0.00 | 0.00 | 80 | 990.7 |
| 20260509124747 | 56 | 5 | 0.0 | 3.0 | 0.00 | 0.00 | 0.00 | 80 | 991.0 |
| 20260509124502 | 55 | 17 | 1.0 | 4.0 | 0.00 | 0.00 | 0.00 | 80 | 991.1 |
| 20260509123100 | 55 | 5 | 0.0 | 4.0 | 0.00 | 0.00 | 0.00 | 80 | 990.8 |
| 20260509122646 | 55 | 13 | 0.0 | 7.0 | 0.00 | 0.00 | 0.00 | 81 | 990.9 |
| 20260509121625 | 55 | 19 | 1.0 | 7.0 | 0.00 | 0.00 | 0.00 | 83 | 990.9 |
| 20260509121606 | 55 | 19 | 1.0 | 8.0 | 0.00 | 0.00 | 0.00 | 83 | 990.9 |
| 20260509120646 | 55 | 275 | 0.0 | 2.0 | 0.00 | 0.00 | 0.00 | 84 | 990.4 |
| 20260509115629 | 54 | 275 | 0.0 | 2.0 | 0.00 | 0.00 | 0.00 | 85 | 990.7 |
| 20260509114617 | 54 | 333 | 0.0 | 2.0 | 0.00 | 0.00 | 0.00 | 87 | 990.7 |
| 20260509114503 | 53 | 333 | 0.0 | 2.0 | 0.00 | 0.00 | 0.00 | 86 | 990.8 |
| 20260509113553 | 54 | 336 | 0.0 | 0.0 | 0.00 | 0.00 | 0.00 | 86 | 990.5 |
| 20260509113104 | 53 | 336 | 0.0 | 4.0 | 0.00 | 0.00 | 0.00 | 87 | 990.6 |
| 20260509112554 | 54 | 263 | 0.0 | 2.0 | 0.00 | 0.00 | 0.00 | 86 | 990.4 |
| 20260509111602 | 53 | 263 | 0.0 | 0.0 | 0.00 | 0.00 | 0.00 | 86 | 990.3 |
| 20260509111558 | 54 | 263 | 0.0 | 0.0 | 0.00 | 0.00 | 0.00 | 86 | 990.3 |
| 20260509110619 | 54 | 263 | 0.0 | 1.0 | 0.00 | 0.00 | 0.00 | 85 | 990.5 |
| 20260509105555 | 53 | 263 | 0.0 | 1.0 | 0.00 | 0.00 | 0.00 | 85 | 990.4 |
| 20260509104603 | 53 | 263 | 0.0 | 1.0 | 0.00 | 0.00 | 0.00 | 86 | 990.5 |
| 20260509104537 | 53 | 263 | 0.0 | 0.0 | 0.00 | 0.00 | 0.00 | 86 | 990.4 |
| 20260509103504 | 53 | 263 | 0.0 | 1.0 | 0.00 | 0.00 | 0.00 | 86 | 990.3 |
| 20260509103004 | 52 | 263 | 0.0 | 2.0 | 0.00 | 0.00 | 0.00 | 86 | 990.3 |
| 20260509102453 | 53 | 263 | 0.0 | 1.0 | 0.00 | 0.00 | 0.00 | 86 | 990.1 |
| 20260509101511 | 53 | 263 | 0.0 | 0.0 | 0.00 | 0.00 | 0.00 | 86 | 990.2 |
| 20260509101502 | 52 | 263 | 0.0 | 0.0 | 0.00 | 0.00 | 0.00 | 86 | 990.2 |
| 20260509100447 | 53 | 263 | 0.0 | 2.0 | 0.00 | 0.00 | 0.00 | 86 | 990.1 |
| 20260509095435 | 53 | 263 | 0.0 | 0.0 | 0.00 | 0.00 | 0.00 | 86 | 990.1 |
| 20260509094602 | 53 | 263 | 0.0 | 2.0 | 0.00 | 0.00 | 0.00 | 85 | 989.9 |
| 20260509094432 | 53 | 263 | 0.0 | 1.0 | 0.00 | 0.00 | 0.00 | 85 | 990.0 |
| 20260509093446 | 53 | 263 | 0.0 | 2.0 | 0.00 | 0.00 | 0.00 | 85 | 990.3 |
| 20260509093006 | 52 | 263 | 0.0 | 3.0 | 0.00 | 0.00 | 0.00 | 86 | 990.2 |
| 20260509092436 | 53 | 263 | 0.0 | 2.0 | 0.00 | 0.00 | 0.00 | 86 | 990.2 |
| 20260509091602 | 52 | 263 | 0.0 | 1.0 | 0.00 | 0.00 | 0.00 | 86 | 990.3 |
| 20260509091453 | 53 | 263 | 0.0 | 0.0 | 0.00 | 0.00 | 0.00 | 86 | 990.3 |
| 20260509090505 | 52 | 263 | 0.0 | 0.0 | 0.00 | 0.00 | 0.00 | 87 | 990.3 |
| 20260509090003 | 52 | 263 | 1.0 | 3.0 | 0.00 | 0.00 | 0.00 | 87 | 990.2 |
| 20260509084504 | 51 | 263 | 1.0 | 2.0 | 0.00 | 0.00 | 0.00 | 87 | 990.5 |
| 20260509084319 | 51 | 263 | 0.0 | 1.0 | 0.00 | 0.00 | 0.00 | 87 | 990.5 |
| 20260509083313 | 51 | 263 | 0.0 | 0.0 | 0.00 | 0.00 | 0.00 | 87 | 990.5 |
| 20260509083106 | 51 | 263 | 0.0 | 2.0 | 0.00 | 0.00 | 0.00 | 87 | 990.6 |
| 20260509082248 | 51 | 263 | 0.0 | 1.0 | 0.00 | 0.00 | 0.00 | 86 | 990.6 |
| 20260509081502 | 50 | 263 | 0.0 | 0.0 | 0.00 | 0.00 | 0.00 | 86 | 990.8 |
| 20260509081254 | 51 | 263 | 0.0 | 0.0 | 0.00 | 0.00 | 0.00 | 85 | 990.7 |
| 20260509080303 | 51 | 263 | 0.0 | 0.0 | 0.00 | 0.00 | 0.00 | 85 | 990.8 |
| 20260509080010 | 50 | 263 | 0.0 | 2.0 | 0.00 | 0.00 | 0.00 | 85 | 990.8 |
| 20260509075240 | 51 | 263 | 0.0 | 1.0 | 0.00 | 0.00 | 0.00 | 85 | 990.6 |
| 20260509074503 | 50 | 263 | 1.0 | 2.0 | 0.00 | 0.00 | 0.00 | 84 | 990.7 |
| 20260509073135 | 51 | 263 | 0.0 | 0.0 | 0.00 | 0.00 | 0.00 | 83 | 990.8 |
| 20260509073102 | 50 | 263 | 0.0 | 2.0 | 0.00 | 0.00 | 0.00 | 83 | 990.8 |
| 20260509072158 | 51 | 263 | 0.0 | 2.0 | 0.00 | 0.00 | 0.00 | 82 | 990.9 |
| 20260509071601 | 51 | 263 | 1.0 | 3.0 | 0.00 | 0.00 | 0.00 | 80 | 991.0 |
| 20260509071222 | 51 | 263 | 0.0 | 0.0 | 0.00 | 0.00 | 0.00 | 79 | 990.9 |
| 20260509070207 | 52 | 169 | 0.0 | 0.0 | 0.00 | 0.00 | 0.00 | 78 | 990.9 |
| 20260509070003 | 51 | 169 | 0.0 | 0.0 | 0.00 | 0.00 | 0.00 | 78 | 991.0 |
| 20260509064620 | 52 | 169 | 0.0 | 0.0 | 0.00 | 0.00 | 0.00 | 76 | 990.9 |
| 20260509064042 | 53 | 169 | 0.0 | 0.0 | 0.00 | 0.00 | 0.00 | 76 | 990.9 |
| 20260509063056 | 53 | 169 | 0.0 | 0.0 | 0.00 | 0.00 | 0.00 | 77 | 990.9 |
| 20260509063003 | 53 | 169 | 0.0 | 0.0 | 0.00 | 0.00 | 0.00 | 76 | 991.0 |
| 20260509062046 | 53 | 169 | 0.0 | 0.0 | 0.00 | 0.00 | 0.00 | 77 | 990.9 |
| 20260509061509 | 53 | 169 | 0.0 | 2.0 | 0.00 | 0.00 | 0.00 | 78 | 991.0 |
| 20260509061016 | 53 | 169 | 0.0 | 0.0 | 0.00 | 0.00 | 0.00 | 78 | 990.9 |
| 20260509060040 | 52 | 276 | 2.0 | 7.0 | 0.00 | 0.00 | 0.00 | 80 | 990.8 |
| 20260509055103 | 52 | 288 | 0.0 | 2.0 | 0.00 | 0.00 | 0.00 | 81 | 991.1 |
| 20260509054604 | 51 | 288 | 0.0 | 2.0 | 0.00 | 0.00 | 0.00 | 82 | 991.3 |
| 20260509054030 | 52 | 288 | 0.0 | 1.0 | 0.00 | 0.00 | 0.00 | 82 | 991.3 |
| 20260509053007 | 52 | 288 | 2.0 | 4.0 | 0.00 | 0.00 | 0.00 | 83 | 991.4 |
| 20260509051837 | 52 | 288 | 0.0 | 0.0 | 0.00 | 0.00 | 0.00 | 81 | 991.6 |
| 20260509051604 | 51 | 288 | 0.0 | 0.0 | 0.00 | 0.00 | 0.00 | 81 | 991.6 |
| 20260509050824 | 52 | 288 | 0.0 | 0.0 | 0.00 | 0.00 | 0.00 | 81 | 991.6 |
| 20260509050003 | 52 | 288 | 0.0 | 4.0 | 0.00 | 0.00 | 0.00 | 81 | 991.6 |
| 20260509045822 | 52 | 288 | 1.0 | 3.0 | 0.00 | 0.00 | 0.00 | 81 | 991.6 |
| 20260509044503 | 52 | 288 | 0.0 | 1.0 | 0.00 | 0.00 | 0.00 | 80 | 991.7 |
| 20260509043621 | 53 | 288 | 1.0 | 3.0 | 0.00 | 0.00 | 0.00 | 80 | 991.6 |
| 20260509043102 | 52 | 288 | 1.0 | 4.0 | 0.00 | 0.00 | 0.00 | 80 | 991.7 |
| 20260509041657 | 53 | 331 | 0.0 | 0.0 | 0.00 | 0.00 | 0.00 | 79 | 991.7 |
| 20260509040304 | 54 | 331 | 0.0 | 2.0 | 0.00 | 0.00 | 0.00 | 79 | 991.9 |
| 20260509040003 | 54 | 355 | 1.0 | 3.0 | 0.00 | 0.00 | 0.00 | 78 | 991.8 |
| 20260509035325 | 54 | 355 | 0.0 | 0.0 | 0.00 | 0.00 | 0.00 | 78 | 991.8 |
| 20260509034502 | 54 | 355 | 0.0 | 0.0 | 0.00 | 0.00 | 0.00 | 79 | 991.9 |
| 20260509034309 | 55 | 355 | 0.0 | 0.0 | 0.00 | 0.00 | 0.00 | 79 | 991.9 |
| 20260509033253 | 55 | 355 | 0.0 | 2.0 | 0.00 | 0.00 | 0.00 | 78 | 992.2 |
| 20260509033003 | 54 | 355 | 1.0 | 3.0 | 0.00 | 0.00 | 0.00 | 79 | 992.3 |
| 20260509032222 | 54 | 267 | 0.0 | 0.0 | 0.00 | 0.00 | 0.00 | 78 | 992.1 |
| 20260509031606 | 54 | 267 | 0.0 | 0.0 | 0.00 | 0.00 | 0.00 | 78 | 991.9 |
| 20260509030028 | 55 | 38 | 0.0 | 1.0 | 0.00 | 0.00 | 0.00 | 77 | 992.1 |
| 20260509025038 | 54 | 40 | 0.0 | 0.0 | 0.00 | 0.00 | 0.00 | 76 | 992.2 |
| 20260509024602 | 54 | 40 | 0.0 | 3.0 | 0.00 | 0.00 | 0.00 | 75 | 992.2 |
| 20260509024044 | 54 | 40 | 1.0 | 4.0 | 0.00 | 0.00 | 0.00 | 77 | 992.2 |
| 20260509023108 | 54 | 250 | 0.0 | 1.0 | 0.00 | 0.00 | 0.00 | 78 | 991.7 |
| 20260509023003 | 54 | 250 | 0.0 | 2.0 | 0.00 | 0.00 | 0.00 | 78 | 991.7 |